Location: ??????????
(41.2581°N, 22.8006°E)
Time: 01:33:49
(UTC+00:00)

Cosmos 2151 - Pass Details

Date: 13 December 2025
Orbit: 559 x 575 km, 82.5° (Epoch: 17 January)

Event Time Altitude Azimuth Distance (km) Brightness Sun altitude
Rises 15:29:53 0° 352° (N) 2,790 6.2 -5.8°
Reaches altitude 10° 15:32:05 10° 353° (N) 1,890 5.4 -6.1°
Maximum altitude 15:36:16 85° 83° (E) 583 2.9 -6.8°
Drops below altitude 10° 15:40:25 10° 172° (S) 1,879 5.8 -7.6°
Sets 15:42:35 0° 172° (S) 2,773 6.6 -7.9°
